Weather History for KABQ - February, 2013

Change the Weather History Date:

Tuesday, February 19, 2013

  Actual Average Record
Temperature  
Mean Temperature 43 °F 42 °F  
Max Temperature 60 °F 54 °F 72 °F (1981)
Min Temperature 25 °F 31 °F 12 °F (1910)
Degree Days  
Heating Degree Days 22 23  
Month to date heating degree days 463 469  
Since 1 July heating degree days 2941 3111  
Cooling Degree Days 0 0  
Month to date cooling degree days 0 0  
Year to date cooling degree days 0 0  
Moisture  
Dew Point 5 °F    
Average Humidity 37    
Maximum Humidity 65    
Minimum Humidity 9    
Precipitation  
Precipitation 0.00 in 0.02 in 0.36 in (1915)
Month to date precipitation 0.00 0.32  
Year to date precipitation 0.11 0.70  
Snow  
Snow 0.00 in - - ()
Month to date snowfall 0.0  
Since 1 July snowfall 0.7  
Snow Depth 0.00 in    
Sea Level Pressure  
Sea Level Pressure 29.89 in    
Wind  
Wind Speed 14 mph (SE)    
Max Wind Speed 35 mph    
Max Gust Speed 43 mph    
Visibility 10 miles    
Events      
T = Trace of Precipitation, MM = Missing Value Source: NWS Daily Summary

Daily Weather History Graph

Daily Weather History Graph

Search for Another Location

Airport or City:

Trip Planner

Search our weather history database for the weather conditions in past years. The results will help you decide how hot, cold, wet, or windy it might be!

Date:

Astronomy

Feb. 19, 2013 Rise Set
Actual Time 6:47 AM MST 5:53 PM MST
Civil Twilight 6:21 AM MST 6:19 PM MST
Nautical Twilight 5:52 AM MST 6:48 PM MST
Astronomical Twilight 5:23 AM MST 7:17 PM MST
Moon 12:34 PM MST (2/19) 2:15 AM MST (2/19)
Length of Visible Light 11h 57m
Length of Day
11h 05m
Waxing Gibbous, 68% of the Moon is Illuminated
Feb 19
Waxing Gibbous
Feb 25
Full
Mar 4
Last Quarter
Mar 11
New
Mar 19
First Quarter

Hourly Weather History & Observations

Time (MST) Temp. Windchill Dew Point Humidity Pressure Visibility Wind Dir Wind Speed Gust Speed Precip Events Conditions
12:52 AM 34.0 °F 28.8 °F -11.9 °F 14% 30.06 in 10.0 mi NNE 5.8 mph - N/A   Scattered Clouds
1:52 AM 33.1 °F 24.9 °F -11.0 °F 15% 30.05 in 10.0 mi North 10.4 mph - N/A   Scattered Clouds
2:52 AM 30.9 °F 21.7 °F -11.0 °F 16% 30.03 in 10.0 mi North 11.5 mph - N/A   Partly Cloudy
3:52 AM 30.0 °F 23.2 °F -9.0 °F 18% 30.03 in 10.0 mi NNW 6.9 mph - N/A   Partly Cloudy
4:52 AM 28.0 °F 19.3 °F -8.0 °F 21% 30.02 in 10.0 mi North 9.2 mph - N/A   Partly Cloudy
5:52 AM 26.6 °F 17.5 °F -7.6 °F 22% 30.04 in 10.0 mi North 9.2 mph - N/A   Partly Cloudy
6:52 AM 25.0 °F 17.1 °F -7.1 °F 24% 30.06 in 10.0 mi North 6.9 mph - N/A   Scattered Clouds
7:52 AM 28.9 °F 21.9 °F -7.1 °F 21% 30.06 in 10.0 mi North 6.9 mph - N/A   Mostly Cloudy
8:52 AM 32.0 °F - -6.0 °F 19% 30.05 in 10.0 mi Calm Calm - N/A   Mostly Cloudy
9:52 AM 37.0 °F 33.3 °F -5.1 °F 17% 30.02 in 10.0 mi Variable 4.6 mph - N/A   Scattered Clouds
10:52 AM 43.0 °F 40.3 °F -6.0 °F 13% 29.99 in 10.0 mi NW 4.6 mph - N/A   Scattered Clouds
11:52 AM 46.9 °F - -6.0 °F 11% 29.93 in 10.0 mi Variable 3.5 mph - N/A   Scattered Clouds
12:52 PM 51.1 °F - -5.1 °F 10% 29.85 in 10.0 mi Calm Calm - N/A   Scattered Clouds
1:52 PM 54.0 °F - -2.0 °F 10% 29.79 in 10.0 mi South 6.9 mph - N/A   Mostly Cloudy
2:52 PM 57.9 °F - -0.0 °F 10% 29.74 in 10.0 mi South 18.4 mph - N/A   Mostly Cloudy
3:52 PM 59.0 °F - 1.9 °F 10% 29.71 in 10.0 mi South 17.3 mph 25.3 mph N/A   Scattered Clouds
5:52 PM 54.0 °F - 21.0 °F 28% 29.72 in 10.0 mi South 26.5 mph 33.4 mph N/A   Mostly Cloudy
6:52 PM 52.0 °F - 28.9 °F 41% 29.74 in 10.0 mi South 29.9 mph 41.4 mph N/A   Mostly Cloudy
8:52 PM 48.0 °F - 33.1 °F 56% 29.73 in 10.0 mi South 32.2 mph 40.3 mph N/A   Mostly Cloudy
9:52 PM 46.9 °F - 34.0 °F 61% 29.73 in 10.0 mi South 21.9 mph 36.8 mph N/A   Mostly Cloudy
10:52 PM 45.0 °F 36.6 °F 34.0 °F 65% 29.72 in 10.0 mi South 21.9 mph 27.6 mph N/A   Mostly Cloudy
11:52 PM 45.0 °F 36.0 °F 34.0 °F 65% 29.69 in 10.0 mi South 25.3 mph 32.2 mph N/A   Overcast